Theta_e
310 310 310 309 308 307 306 306 306 306 307 308 308 310 308 307 306 306 306 306 306 306 306 307 308 309 309 310 310 311 312 313
310 310 309 308 307 306 305 304 304 304 305 306 307 308 308 307 306 305 304 304 303 302 303 303 303 305 305 306 306 307 309 310
309 308 307 306 305 305 304 304 303 302 303 304 304 306 305 305 304 304 303 302 301 301 300 301 301 302 303 302 303 304 306 307
309 306 306 306 305 304 304 303 301 301 300 301 303 304 303 302 301 301 300 299 299 298 298 298 299 299 300 300 301 301 303 304
306 305 305 305 304 304 303 302 300 299 299 299 298 299 298 298 297 297 297 297 296 296 295 296 296 297 297 297 298 299 300 302
304 304 305 304 303 303 302 300 299 298 297 297 296 296 296 296 295 294 294 294 293 293 292 293 294 295 295 295 296 297 298 300
305 305 304 303 302 301 301 299 297 297 296 295 295 295 295 294 293 293 292 292 292 291 292 292 292 293 293 294 295 296 297 298
304 304 303 301 300 300 299 298 296 295 295 294 294 294 293 293 292 292 291 291 291 290 291 291 292 292 292 293 294 294 294 295
304 303 302 299 298 298 297 296 295 294 294 293 293 292 292 292 291 291 291 290 290 290 291 290 290 291 291 292 291 292 291 292
304 303 301 298 297 296 296 295 294 294 293 293 292 292 291 291 290 290 289 289 290 290 289 289 289 290 291 291 290 290 290 290
303 302 299 297 296 295 295 294 294 293 293 293 292 292 291 290 290 290 289 289 289 290 288 287 288 289 290 291 290 289 289 289
303 302 298 297 296 295 294 294 293 293 293 292 292 292 291 290 290 289 289 289 289 288 285 285 286 287 288 289 289 288 288 288
303 301 298 297 295 294 294 294 293 293 293 293 292 291 290 290 289 288 288 288 287 285 284 283 284 286 287 287 287 286 286 286
303 300 298 296 295 294 294 294 294 294 293 292 290 289 289 289 288 287 286 286 286 284 282 281 282 284 285 285 284 284 283 283
305 300 298 296 295 294 294 293 294 293 292 290 289 289 288 287 287 286 285 285 284 281 280 280 280 282 284 285 284 282 279 280
305 299 296 295 295 294 294 293 293 292 291 289 288 287 287 286 285 284 283 283 282 281 279 278 279 281 283 283 282 281 278 277
306 299 296 295 294 294 294 293 292 291 289 287 286 285 285 284 284 283 282 280 280 280 278 278 278 280 282 283 281 280 278 276
305 298 296 295 294 294 294 292 290 288 287 286 285 284 284 283 282 281 280 279 278 278 277 278 278 278 280 281 281 278 277 277
302 297 295 294 294 293 292 290 288 287 286 285 284 283 282 282 282 281 280 279 279 278 277 277 278 278 278 279 278 277 275 275
Wind_Speed
19 16 15 14 15 16 17 18 17 15 17 18 15 14 18 19 20 20 21 22 22 20 14 16 15 15 16 16 18 17 17 20
20 18 15 14 13 16 17 18 17 18 22 20 17 17 16 19 24 24 24 22 22 21 20 19 19 16 17 18 19 20 17 22
17 22 17 11 8 9 12 14 17 17 17 15 14 18 17 21 20 24 26 22 20 20 20 21 21 18 17 17 17 15 9 19
13 17 14 9 8 8 8 10 14 17 16 15 12 11 14 18 20 19 19 21 19 20 19 18 19 17 18 17 16 15 12 10
13 17 13 11 9 7 8 10 13 16 17 19 19 18 16 16 19 16 16 18 21 21 20 17 16 16 17 16 14 14 12 11
12 15 16 13 9 8 9 11 11 11 14 14 16 17 15 13 16 18 18 18 19 23 22 18 17 16 15 15 15 13 11 10
14 18 19 15 12 9 8 13 14 12 12 13 15 15 15 17 17 15 15 17 17 21 20 20 19 17 17 15 14 11 10 10
12 11 17 19 15 8 9 11 13 12 12 14 13 13 13 15 15 15 15 16 16 20 19 19 19 18 16 14 12 11 12 11
11 14 19 21 17 11 11 13 13 11 10 11 11 13 14 14 13 13 14 14 16 17 19 19 17 17 18 15 16 13 14 14
11 16 19 21 17 13 11 13 12 10 9 9 12 13 13 14 12 12 14 14 12 19 19 19 18 19 18 16 16 16 17 17
11 14 18 20 17 13 12 11 10 9 8 9 10 12 12 12 11 12 13 14 17 16 17 21 16 20 19 13 16 17 19 19
10 13 21 20 17 14 12 11 9 8 8 9 10 11 10 11 11 11 11 16 17 18 18 20 19 22 23 18 17 20 23 21
9 18 22 23 21 16 12 9 9 9 8 8 10 12 13 12 12 12 13 16 17 17 19 22 18 19 23 19 20 21 24 25
9 15 19 21 23 19 14 11 10 9 9 11 12 13 13 13 13 13 14 16 17 18 19 23 19 20 21 21 21 22 24 26
15 12 17 21 23 21 15 10 9 10 10 12 13 14 14 14 14 13 14 15 20 19 20 21 22 21 22 20 19 22 26 22
15 14 17 22 23 22 17 12 9 11 8 12 14 14 14 14 14 15 12 12 17 18 22 25 23 23 24 20 21 23 28 26
19 17 23 22 23 24 20 16 13 16 16 15 14 14 14 14 13 14 14 16 17 19 23 25 27 25 23 20 21 22 26 28
18 19 23 24 24 25 18 21 17 16 15 14 12 11 13 14 14 15 16 19 21 22 23 27 27 27 21 22 20 24 23 23
16 22 26 27 31 25 22 22 22 20 18 16 14 15 15 15 16 16 17 19 21 23 25 27 29 27 24 19 21 22 23 23
Wind_Direction
106 96 85 76 59 50 45 37 36 43 38 42 41 47 37 35 32 29 24 17 15 15 11 359 350 2 350 349 342 338 342 337
118 108 92 74 58 47 40 34 25 32 31 26 30 22 44 52 43 31 27 20 20 21 23 9 15 24 1 7 356 352 354 353
118 102 89 72 46 29 32 38 27 28 31 30 25 46 50 51 45 44 33 27 17 19 23 17 14 10 9 6 5 357 348 4
119 102 95 86 80 54 38 57 36 34 30 37 39 40 29 19 16 21 26 33 18 13 13 16 14 7 7 3 3 0 348 352
115 115 112 108 94 74 61 64 55 44 37 45 45 42 34 24 14 13 6 7 3 357 1 8 8 7 2 355 350 351 350 342
121 124 129 117 110 85 70 84 65 52 46 44 47 47 38 29 24 18 21 12 12 3 7 7 358 356 359 353 346 346 347 339
127 137 135 133 121 112 91 89 77 61 52 47 46 44 37 34 25 22 20 17 15 10 11 10 5 1 359 355 349 352 1 349
141 151 147 137 126 122 97 97 77 67 60 53 48 54 47 40 33 26 25 22 20 17 18 14 11 6 9 7 10 0 8 7
154 155 149 137 131 128 95 97 84 72 65 63 59 58 57 51 40 36 31 28 22 25 27 21 21 24 21 25 19 18 17 32
142 136 143 139 132 128 113 102 94 85 83 73 69 63 61 54 47 41 37 39 34 34 32 27 29 30 23 38 26 30 39 39
143 145 138 137 133 131 123 113 102 101 90 87 79 72 64 61 56 47 39 42 38 37 40 31 34 39 33 30 36 36 42 45
155 154 142 141 139 135 126 119 117 110 103 94 86 80 69 64 63 50 43 40 43 51 43 37 40 41 40 30 36 36 39 40
162 147 142 146 145 139 133 133 133 127 129 106 95 94 87 76 72 62 58 53 51 54 46 35 46 47 46 22 40 38 37 31
163 151 153 147 144 141 145 152 155 140 135 113 99 93 87 80 74 71 64 59 54 46 49 38 46 47 45 35 41 41 39 36
171 157 153 144 143 141 146 155 142 130 119 107 99 94 92 85 81 76 72 68 60 52 44 49 40 43 41 44 49 47 42 43
172 161 149 146 145 148 153 156 155 143 142 112 106 101 95 89 85 76 68 70 69 61 49 49 47 39 32 50 55 53 45 42
174 156 149 149 144 147 153 160 148 141 128 114 109 105 101 94 89 81 72 73 73 68 54 49 44 40 40 49 54 55 49 42
171 153 149 147 149 149 157 147 139 135 128 121 117 116 109 99 93 88 85 78 73 69 63 58 49 43 45 51 56 57 53 43
149 146 142 143 146 147 141 142 136 131 122 120 123 120 111 109 106 99 92 84 77 70 64 62 58 45 46 61 65 60 54 53